Pagina principale
METAR-TAF:

METAR-TAF

Aeroporti :

Meiringen, Svizzera

latitudine: 46-44-25N, longitudine: 8-06-36E, altezza: 577 m

Osservazione

Il bollettino è stato emesso 35 minuti fa, alle 02:50 UTC
Vento 4 kt da direzioni variabili
Temperature 8°C
Umidità 71%
Pressione 1025 hPa
Visibilità 10 km o più
Nubi sparse ad un'altezza di 7700 ft
Nuvoloso ad un'altezza di 17000 ft

METAR: LSMM 240250Z AUTO VRB04KT 9999NDV SCT077 BKN170 08/03 Q1025 RMK

Ora: 04:25 (03:25 UTC)


TAF: mancante

Osservazioni e previsioni meteorologiche di più di 4000 aeroporti (messaggi METAR e TAF).

Le stazioni disponibili sono rappresentate dai dischi gialli e rossi sulla carta.

Puntare il mouse per vedere il nome della stazione.

Clicca sopra per visualizzare le osservazioni e previsioni meteorologiche.

Per cambiare la mappa : fare clic sui pulsanti verdi con una croce nera per ingrandire, il pulsante verde con un trattino per diminuire, o sulla freccia verde per le mappe adiacenti.


METAR-TAF: